MPH9472 UAAA-EHAM

Flight info

Callsign MPH9472
Flight time N/A
Altitude 30000
Route TIPSA M610 ARBOL Z621 GENDI N147 OTBOR/N0507F300 A480 TIMGA B476 IZGAR/N0503F320 B476 METKA L88 RASAM N199 EDATA M11 REBLO UM11 CRM UL746 ODERO DCT OPT/N0493F340 DCT ALOXU DCT TUVNU DCT FOGRE DCT PEPIK DCT LIKSA DCT ELMEK DCT VEXIL DCT KATCE DCT APEBE DCT NORKU
Aircraft B744/H-SDE3FGHIM1M2RWXY/LB1

Departure

Time 2026-05-07 09:27
Airport Almaty International Airport (UAAA)

Arrival

Time N/A
Airport Amsterdam Airport Schiphol (EHAM)
Time Latitude Longitude Altitude Speed Heading
2026-05-07 09:03 43.35131 77.02208 2252 ft 0 kts
2026-05-07 09:20 43.35057 77.02193 2251 ft 60 kts 81°
2026-05-07 09:20 43.35051 77.02140 2251 ft 0 kts 93°
2026-05-07 09:23 43.35051 77.02142 2251 ft 1 kts 93°
2026-05-07 09:24 43.35050 77.02166 2251 ft 4 kts 93°
2026-05-07 09:24 43.35048 77.02220 2251 ft 7 kts 93°
2026-05-07 09:24 43.35045 77.02303 2251 ft 10 kts 93°
2026-05-07 09:24 43.35015 77.02392 2251 ft 11 kts 140°
2026-05-07 09:25 43.34957 77.02457 2251 ft 10 kts 140°
2026-05-07 09:25 43.34936 77.02481 2251 ft 0 kts 138°
2026-05-07 09:25 43.34926 77.02493 2251 ft 6 kts 138°
2026-05-07 09:26 43.34863 77.02569 2251 ft 17 kts 138°
2026-05-07 09:26 43.34800 77.02702 2251 ft 17 kts 85°
2026-05-07 09:26 43.34872 77.02874 2251 ft 37 kts 56°
2026-05-07 09:26 43.35158 77.03440 2251 ft 108 kts 57°
2026-05-07 09:27 43.35723 77.04564 2251 ft 177 kts 56°
2026-05-07 09:27 43.36510 77.06145 2513 ft 206 kts 54°
2026-05-07 09:27 43.38127 77.09087 4506 ft 186 kts 53°
2026-05-07 09:28 43.38948 77.10532 4885 ft 200 kts 45°
2026-05-07 09:28 43.40182 77.11442 5068 ft 213 kts 12°
2026-05-07 09:28 43.41678 77.11200 5320 ft 221 kts 340°
2026-05-07 09:28 43.43013 77.10097 5498 ft 229 kts 328°
2026-05-07 09:29 43.44322 77.08786 5572 ft 242 kts 326°
2026-05-07 09:29 43.45675 77.07313 5709 ft 255 kts 317°
2026-05-07 09:29 43.46726 77.05285 5796 ft 269 kts 298°
2026-05-07 09:29 43.47427 77.02829 5919 ft 284 kts 288°
2026-05-07 09:30 43.47924 77.00109 6057 ft 302 kts 282°
2026-05-07 09:30 43.48305 76.97215 6528 ft 309 kts 279°
2026-05-07 09:30 43.48615 76.94267 7126 ft 313 kts 277°
2026-05-07 09:30 43.48907 76.91272 7657 ft 320 kts 277°
2026-05-07 09:31 43.49215 76.88217 8205 ft 324 kts 277°
2026-05-07 09:31 43.49535 76.85134 8789 ft 327 kts 278°
2026-05-07 09:31 43.49867 76.82029 9394 ft 328 kts 278°
2026-05-07 09:31 43.50204 76.78919 10057 ft 328 kts 278°
2026-05-07 09:32 43.50548 76.75773 10487 ft 339 kts 278°
2026-05-07 09:32 43.50912 76.72471 10619 ft 358 kts 278°
2026-05-07 09:32 43.51295 76.68995 10759 ft 377 kts 278°
2026-05-07 09:32 43.51699 76.65331 10891 ft 396 kts 278°
2026-05-07 09:33 43.52122 76.61502 11097 ft 411 kts 278°
2026-05-07 09:33 43.52555 76.57571 11598 ft 418 kts 278°
2026-05-07 09:33 43.52993 76.53587 12176 ft 423 kts 278°
2026-05-07 09:33 43.53434 76.49566 12809 ft 426 kts 278°
2026-05-07 09:34 43.53878 76.45512 13401 ft 430 kts 278°
2026-05-07 09:34 43.54323 76.41426 13993 ft 433 kts 278°
2026-05-07 09:34 43.54771 76.37302 14564 ft 437 kts 278°
2026-05-07 09:34 43.55222 76.33144 15128 ft 440 kts 278°
2026-05-07 09:35 43.55674 76.28957 15685 ft 444 kts 278°
2026-05-07 09:35 43.56128 76.24734 16231 ft 447 kts 278°
2026-05-07 09:35 43.56584 76.20485 16785 ft 450 kts 279°
2026-05-07 09:35 43.57041 76.16205 17286 ft 453 kts 279°
2026-05-07 09:36 43.57499 76.11896 17815 ft 456 kts 279°
2026-05-07 09:36 43.57960 76.07554 18288 ft 459 kts 279°
2026-05-07 09:36 43.58420 76.03185 18777 ft 462 kts 279°
2026-05-07 09:36 43.58885 75.98777 19217 ft 466 kts 278°
2026-05-07 09:37 43.59372 75.94340 19681 ft 469 kts 279°
2026-05-07 09:37 43.59859 75.89872 20070 ft 473 kts 278°
2026-05-07 09:37 43.60332 75.85363 20535 ft 476 kts 278°
2026-05-07 09:37 43.60796 75.80831 20949 ft 479 kts 278°
2026-05-07 09:38 43.61260 75.76264 21355 ft 482 kts 278°
2026-05-07 09:38 43.61724 75.71665 21780 ft 485 kts 278°
2026-05-07 09:38 43.62189 75.67042 22184 ft 488 kts 278°
2026-05-07 09:38 43.62656 75.62389 22583 ft 491 kts 278°
2026-05-07 09:39 43.63127 75.57715 22963 ft 494 kts 278°
2026-05-07 09:39 43.63583 75.52994 23294 ft 497 kts 276°
2026-05-07 09:39 43.63880 75.48237 23695 ft 499 kts 274°
2026-05-07 09:39 43.64068 75.43450 24058 ft 501 kts 272°
2026-05-07 09:40 43.64216 75.38629 24386 ft 504 kts 272°
2026-05-07 09:40 43.64319 75.35429 24645 ft 504 kts 273°
2026-05-07 09:40 43.64541 75.28947 25108 ft 506 kts 273°
2026-05-07 09:40 43.64712 75.24095 25543 ft 505 kts 273°
2026-05-07 09:41 43.64826 75.20891 25883 ft 504 kts 273°
2026-05-07 09:41 43.64997 75.16082 26467 ft 499 kts 273°
2026-05-07 09:41 43.65221 75.09768 27113 ft 496 kts 273°
2026-05-07 09:41 43.65392 75.05015 27521 ft 495 kts 273°
2026-05-07 09:42 43.65531 75.01818 27830 ft 494 kts 274°
2026-05-07 09:42 43.65731 74.97092 28285 ft 491 kts 273°
2026-05-07 09:42 43.65915 74.92393 28686 ft 489 kts 273°
2026-05-07 09:42 43.66086 74.87777 29082 ft 488 kts 273°
2026-05-07 09:43 43.66257 74.83048 29467 ft 486 kts 272°
2026-05-07 09:43 43.66418 74.78462 29838 ft 484 kts 272°
2026-05-07 09:43 43.66579 74.73820 29963 ft 484 kts 272°
2026-05-07 09:44 43.66895 74.64532 29997 ft 484 kts 272°
2026-05-07 09:44 43.67245 74.55270 29997 ft 482 kts 272°
2026-05-07 09:45 43.67535 74.46016 30013 ft 482 kts 272°
2026-05-07 09:45 43.67809 74.36754 29996 ft 482 kts 272°
2026-05-07 09:46 43.68078 74.27514 29996 ft 481 kts 272°
2026-05-07 09:46 43.68350 74.18268 29996 ft 482 kts 272°
2026-05-07 09:47 43.68671 74.09019 29995 ft 482 kts 272°
2026-05-07 09:47 43.68935 73.99778 29997 ft 481 kts 271°
2026-05-07 09:48 43.69183 73.90550 29997 ft 481 kts 271°
2026-05-07 09:48 43.69427 73.81321 29997 ft 481 kts 271°
2026-05-07 09:49 43.69527 73.72088 29998 ft 481 kts 268°
2026-05-07 09:49 43.69078 73.62878 29999 ft 480 kts 265°
2026-05-07 09:50 43.68524 73.53680 30000 ft 480 kts 265°
2026-05-07 09:50 43.67999 73.44483 30000 ft 480 kts 265°
2026-05-07 09:51 43.67479 73.35285 30001 ft 480 kts 265°
2026-05-07 09:51 43.66966 73.26087 30001 ft 480 kts 266°
2026-05-07 09:52 43.66522 73.16946 30001 ft 480 kts 266°
2026-05-07 09:52 43.66032 73.07688 30003 ft 480 kts 266°
2026-05-07 09:53 43.65523 72.98496 30004 ft 480 kts 266°
2026-05-07 09:53 43.65002 72.89314 30005 ft 479 kts 266°
2026-05-07 09:54 43.64476 72.80204 30006 ft 479 kts 266°
2026-05-07 09:54 43.63939 72.71040 30007 ft 479 kts 266°
2026-05-07 09:55 43.63394 72.61875 30009 ft 479 kts 266°
2026-05-07 09:55 43.62842 72.52717 30009 ft 478 kts 266°
2026-05-07 09:56 43.62284 72.43578 30011 ft 478 kts 266°
2026-05-07 09:56 43.61718 72.34436 30012 ft 478 kts 265°
2026-05-07 09:57 43.61145 72.25295 30013 ft 478 kts 265°
2026-05-07 09:57 43.60565 72.16158 30014 ft 478 kts 265°
2026-05-07 09:58 43.59977 72.07022 30015 ft 478 kts 265°
2026-05-07 09:58 43.59383 71.97902 30015 ft 477 kts 265°
2026-05-07 09:59 43.58783 71.88791 30016 ft 477 kts 265°
2026-05-07 09:59 43.58175 71.79678 30017 ft 477 kts 265°
2026-05-07 10:00 43.57559 71.70567 30018 ft 477 kts 265°
2026-05-07 10:00 43.56938 71.61475 30018 ft 476 kts 265°
2026-05-07 10:01 43.56310 71.52386 30018 ft 476 kts 265°
2026-05-07 10:01 43.55678 71.43359 30019 ft 476 kts 265°
2026-05-07 10:02 43.55031 71.34212 30018 ft 476 kts 265°
2026-05-07 10:02 43.54421 71.25205 30018 ft 475 kts 265°
2026-05-07 10:03 43.53775 71.16145 30017 ft 475 kts 265°
2026-05-07 10:03 43.53098 71.07101 30017 ft 474 kts 265°
2026-05-07 10:04 43.52414 70.98062 30016 ft 474 kts 265°
2026-05-07 10:04 43.51731 70.89040 30017 ft 473 kts 265°
2026-05-07 10:05 43.51039 70.80037 30016 ft 472 kts 264°
2026-05-07 10:05 43.50329 70.71045 30015 ft 472 kts 264°
2026-05-07 10:06 43.49611 70.62068 30014 ft 471 kts 264°
2026-05-07 10:06 43.48888 70.53107 30013 ft 470 kts 264°
2026-05-07 10:07 43.48160 70.44158 30045 ft 470 kts 264°
2026-05-07 10:07 43.47794 70.39682 30281 ft 471 kts 264°
2026-05-07 10:07 43.47457 70.35213 30656 ft 467 kts 265°
2026-05-07 10:07 43.47122 70.30771 31001 ft 466 kts 264°
2026-05-07 10:08 43.46775 70.26339 31237 ft 466 kts 264°
2026-05-07 10:08 43.46423 70.21971 31531 ft 464 kts 264°
2026-05-07 10:08 43.46073 70.17511 31848 ft 461 kts 265°
2026-05-07 10:08 43.45742 70.13177 31985 ft 462 kts 264°
2026-05-07 10:09 43.45386 70.08787 32004 ft 462 kts 264°
2026-05-07 10:09 43.44642 70.00003 32002 ft 462 kts 264°
2026-05-07 10:10 43.43887 69.91240 32001 ft 461 kts 264°
2026-05-07 10:10 43.43131 69.82495 32000 ft 460 kts 264°
2026-05-07 10:11 43.42375 69.73744 31999 ft 461 kts 264°
2026-05-07 10:11 43.41642 69.64968 31998 ft 462 kts 264°
2026-05-07 10:12 43.40947 69.56191 31984 ft 462 kts 264°
2026-05-07 10:12 43.40221 69.47420 31972 ft 462 kts 263°
2026-05-07 10:13 43.39462 69.38657 31970 ft 462 kts 263°
2026-05-07 10:13 43.38695 69.29895 31969 ft 462 kts 263°
2026-05-07 10:14 43.37927 69.21127 31968 ft 462 kts 263°
2026-05-07 10:14 43.37179 69.12362 31967 ft 462 kts 264°
2026-05-07 10:15 43.36451 69.03593 31967 ft 462 kts 263°
2026-05-07 10:15 43.35772 68.94818 31966 ft 462 kts 264°
2026-05-07 10:16 43.35042 68.86051 31965 ft 462 kts 263°
2026-05-07 10:16 43.34286 68.77287 31965 ft 462 kts 263°
2026-05-07 10:17 43.33524 68.68526 31964 ft 462 kts 263°
2026-05-07 10:17 43.32768 68.59827 31965 ft 462 kts 263°
2026-05-07 10:18 43.31833 68.51114 31964 ft 461 kts 259°
2026-05-07 10:18 43.30714 68.42452 31964 ft 461 kts 260°
2026-05-07 10:19 43.29528 68.33809 31965 ft 461 kts 257°
2026-05-07 10:19 43.27926 68.25289 31964 ft 461 kts 255°
2026-05-07 10:20 43.26344 68.16762 31964 ft 461 kts 256°
2026-05-07 10:20 43.24765 68.08249 31964 ft 461 kts 256°
2026-05-07 10:21 43.23160 67.99742 31964 ft 461 kts 256°
2026-05-07 10:21 43.21548 67.91241 31963 ft 460 kts 255°
2026-05-07 10:22 43.19938 67.82763 31962 ft 460 kts 255°
2026-05-07 10:22 43.18349 67.74261 31961 ft 461 kts 256°
2026-05-07 10:23 43.16743 67.65761 31961 ft 461 kts 255°
2026-05-07 10:23 43.15114 67.57265 31960 ft 461 kts 255°
2026-05-07 10:24 43.13482 67.48772 31958 ft 461 kts 255°
2026-05-07 10:24 43.11847 67.40291 31957 ft 461 kts 255°
2026-05-07 10:25 43.10205 67.31867 31956 ft 461 kts 255°
2026-05-07 10:25 43.08547 67.23395 31954 ft 461 kts 255°
2026-05-07 10:26 43.06938 67.14903 31952 ft 462 kts 255°
2026-05-07 10:26 43.05295 67.06420 31951 ft 462 kts 255°
2026-05-07 10:27 43.03614 66.97937 31949 ft 462 kts 254°
2026-05-07 10:27 43.01929 66.89482 31947 ft 461 kts 254°
2026-05-07 10:28 43.00243 66.81025 31945 ft 461 kts 254°
2026-05-07 10:28 42.98556 66.72580 31943 ft 461 kts 254°
2026-05-07 10:29 42.96843 66.64139 31941 ft 461 kts 254°
2026-05-07 10:29 42.95139 66.55705 31940 ft 461 kts 254°
2026-05-07 10:30 42.92649 66.43014 31937 ft 462 kts 254°
2026-05-07 10:30 42.91234 66.35979 31936 ft 462 kts 254°
2026-05-07 10:31 42.89518 66.27534 31934 ft 462 kts 254°
2026-05-07 10:31 42.87797 66.19092 31932 ft 462 kts 254°
2026-05-07 10:32 42.86076 66.10657 31930 ft 462 kts 254°
2026-05-07 10:32 42.84340 66.02216 31929 ft 462 kts 253°
2026-05-07 10:33 42.82563 65.93812 31928 ft 462 kts 253°
2026-05-07 10:33 42.80776 65.85413 31926 ft 461 kts 253°
2026-05-07 10:34 42.78990 65.77026 31925 ft 461 kts 253°
2026-05-07 10:34 42.77211 65.68631 31924 ft 461 kts 253°
2026-05-07 10:35 42.75433 65.60300 31923 ft 461 kts 253°
2026-05-07 10:35 42.73636 65.51925 31906 ft 461 kts 253°
2026-05-07 10:36 42.71834 65.43558 31903 ft 460 kts 253°
2026-05-07 10:36 42.70030 65.35213 31902 ft 460 kts 253°
2026-05-07 10:37 42.68259 65.26850 31901 ft 461 kts 253°
2026-05-07 10:37 42.66491 65.18489 31900 ft 460 kts 253°
2026-05-07 10:38 42.64696 65.10146 31899 ft 459 kts 252°
2026-05-07 10:38 42.62888 65.01810 31899 ft 460 kts 252°
2026-05-07 10:39 42.61075 64.93498 31898 ft 460 kts 252°
2026-05-07 10:39 42.59254 64.85183 31897 ft 460 kts 252°
2026-05-07 10:40 42.57424 64.76858 31897 ft 459 kts 252°
2026-05-07 10:40 42.55594 64.68567 31874 ft 459 kts 252°
2026-05-07 10:41 42.53798 64.60328 31862 ft 459 kts 252°
2026-05-07 10:41 42.51961 64.52008 31862 ft 460 kts 252°
2026-05-07 10:42 42.50098 64.43722 31861 ft 460 kts 252°
2026-05-07 10:42 42.48223 64.35426 31861 ft 460 kts 252°
2026-05-07 10:43 42.46347 64.27131 31860 ft 460 kts 252°
2026-05-07 10:43 42.44503 64.18889 31860 ft 461 kts 252°
2026-05-07 10:44 42.42667 64.10591 31860 ft 462 kts 252°
2026-05-07 10:44 42.40809 64.02281 31859 ft 461 kts 252°
2026-05-07 10:45 42.38920 63.93993 31859 ft 461 kts 251°
2026-05-07 10:45 42.36992 63.85732 31859 ft 460 kts 251°
2026-05-07 10:46 42.35058 63.77466 31857 ft 460 kts 251°
2026-05-07 10:46 42.33124 63.69219 31858 ft 460 kts 251°
2026-05-07 10:47 42.31185 63.60971 31857 ft 461 kts 251°
2026-05-07 10:47 42.29265 63.52721 31888 ft 460 kts 252°
2026-05-07 10:48 42.27379 63.44539 31890 ft 459 kts 251°
2026-05-07 10:48 42.25481 63.36308 31891 ft 459 kts 251°
2026-05-07 10:49 42.23547 63.28107 31892 ft 458 kts 251°
2026-05-07 10:49 42.21593 63.19941 31894 ft 458 kts 251°
2026-05-07 10:50 42.19627 63.11758 31892 ft 458 kts 251°
2026-05-07 10:50 42.17665 63.03598 31895 ft 457 kts 251°
2026-05-07 10:51 42.15721 62.95444 31895 ft 458 kts 251°
2026-05-07 10:51 42.13761 62.87264 31896 ft 459 kts 251°
2026-05-07 10:52 42.11795 62.79098 31898 ft 459 kts 251°
2026-05-07 10:52 42.09827 62.70934 31898 ft 459 kts 250°
2026-05-07 10:53 42.07842 62.62761 31899 ft 459 kts 250°
2026-05-07 10:53 42.05855 62.54607 31900 ft 458 kts 250°
2026-05-07 10:54 42.03884 62.46455 31901 ft 459 kts 251°
2026-05-07 10:54 42.01920 62.38280 31903 ft 460 kts 250°
2026-05-07 10:55 41.99912 62.30127 31904 ft 460 kts 250°
2026-05-07 10:55 41.97890 62.21965 31906 ft 460 kts 250°
2026-05-07 10:56 41.95880 62.13866 31907 ft 461 kts 250°
2026-05-07 10:56 41.93861 62.05701 31909 ft 460 kts 251°
2026-05-07 10:57 41.91855 61.97543 31910 ft 460 kts 250°
2026-05-07 10:57 41.89815 61.89393 31911 ft 460 kts 250°
2026-05-07 10:58 41.87866 61.81633 31913 ft 460 kts 250°
2026-05-07 10:58 41.85819 61.73489 31914 ft 460 kts 250°
2026-05-07 10:59 41.83753 61.65379 31916 ft 459 kts 250°
2026-05-07 10:59 41.81680 61.57284 31917 ft 459 kts 250°
2026-05-07 11:00 41.79603 61.49201 31919 ft 458 kts 250°
2026-05-07 11:00 41.77528 61.41150 31921 ft 457 kts 249°
2026-05-07 11:01 41.75452 61.33118 31928 ft 457 kts 249°
2026-05-07 11:01 41.73415 61.25059 31930 ft 456 kts 250°
2026-05-07 11:02 41.71365 61.17030 31931 ft 455 kts 249°
2026-05-07 11:02 41.69298 61.09035 31931 ft 453 kts 249°
2026-05-07 11:03 41.67260 61.01055 31931 ft 453 kts 249°
2026-05-07 11:03 41.65196 60.93122 31933 ft 452 kts 249°
2026-05-07 11:04 41.63123 60.85250 31932 ft 451 kts 249°
2026-05-07 11:04 41.61035 60.77350 31933 ft 450 kts 249°
2026-05-07 11:05 41.58954 60.69487 31933 ft 449 kts 249°
2026-05-07 11:05 41.56930 60.61602 31934 ft 449 kts 251°
2026-05-07 11:06 41.55156 60.53612 31934 ft 448 kts 251°
2026-05-07 11:06 41.53323 60.45663 31934 ft 448 kts 251°
2026-05-07 11:07 41.51459 60.37736 31934 ft 447 kts 250°
2026-05-07 11:07 41.49595 60.29840 31934 ft 446 kts 250°
2026-05-07 11:08 41.47731 60.21950 31935 ft 446 kts 250°
2026-05-07 11:08 41.45843 60.14070 31935 ft 446 kts 250°
2026-05-07 11:09 41.43943 60.06218 31935 ft 445 kts 250°
2026-05-07 11:09 41.42076 59.98355 31936 ft 445 kts 250°
2026-05-07 11:10 41.40166 59.90530 31935 ft 443 kts 250°
2026-05-07 11:10 41.38252 59.82743 31936 ft 442 kts 250°
2026-05-07 11:11 41.36337 59.74968 31935 ft 442 kts 250°
2026-05-07 11:11 41.34523 59.67264 31936 ft 444 kts 254°
2026-05-07 11:12 41.33485 59.59195 31937 ft 447 kts 259°
2026-05-07 11:12 41.32759 59.50938 31936 ft 446 kts 260°
2026-05-07 11:13 41.32010 59.42741 31937 ft 446 kts 259°
2026-05-07 11:13 41.31239 59.34631 31937 ft 446 kts 259°
2026-05-07 11:14 41.30450 59.26488 31938 ft 445 kts 259°
2026-05-07 11:14 41.29675 59.18308 31938 ft 445 kts 260°
2026-05-07 11:15 41.28928 59.10151 31938 ft 444 kts 259°
2026-05-07 11:15 41.28149 59.02005 31939 ft 444 kts 259°
2026-05-07 11:16 41.27355 58.93870 31940 ft 443 kts 259°
2026-05-07 11:16 41.26555 58.85759 31940 ft 442 kts 259°
2026-05-07 11:17 41.25749 58.77664 31942 ft 442 kts 259°
2026-05-07 11:17 41.24938 58.69578 31942 ft 441 kts 259°
2026-05-07 11:18 41.24122 58.61498 31943 ft 441 kts 259°
2026-05-07 11:18 41.23303 58.53452 31944 ft 440 kts 258°
2026-05-07 11:19 41.22513 58.45377 31945 ft 440 kts 259°
2026-05-07 11:19 41.21686 58.37338 31946 ft 439 kts 258°
2026-05-07 11:20 41.20982 58.30664 31962 ft 439 kts 258°
2026-05-07 11:20 41.20130 58.22637 31967 ft 438 kts 258°
2026-05-07 11:21 41.19278 58.14639 31970 ft 438 kts 258°
2026-05-07 11:21 41.18425 58.06630 31972 ft 438 kts 258°
2026-05-07 11:22 41.17558 57.98636 31975 ft 437 kts 258°
2026-05-07 11:22 41.16683 57.90661 31977 ft 436 kts 258°
2026-05-07 11:23 41.15803 57.82706 31979 ft 435 kts 258°
2026-05-07 11:23 41.14920 57.74772 31982 ft 436 kts 258°
2026-05-07 11:24 41.14029 57.66818 31984 ft 436 kts 258°
2026-05-07 11:24 41.13176 57.58865 31985 ft 436 kts 258°
2026-05-07 11:25 41.12321 57.50898 31988 ft 436 kts 258°
2026-05-07 11:25 41.11442 57.42955 31991 ft 436 kts 258°
2026-05-07 11:26 41.10549 57.34999 31993 ft 436 kts 258°
2026-05-07 11:26 41.09649 57.27056 31996 ft 436 kts 258°
2026-05-07 11:27 41.08742 57.19106 31998 ft 436 kts 258°
2026-05-07 11:27 41.07830 57.11168 32001 ft 436 kts 258°
2026-05-07 11:28 41.06913 57.03230 32004 ft 436 kts 258°
2026-05-07 11:28 41.05990 56.95293 32007 ft 436 kts 258°
2026-05-07 11:29 41.05095 56.87355 32009 ft 436 kts 258°
2026-05-07 11:29 41.04166 56.79419 32012 ft 436 kts 258°
2026-05-07 11:30 41.03222 56.71547 32014 ft 436 kts 257°
2026-05-07 11:30 41.02265 56.63627 32007 ft 436 kts 257°
2026-05-07 11:31 41.01305 56.55704 32007 ft 436 kts 257°
2026-05-07 11:31 41.00606 56.47730 32009 ft 438 kts 263°
2026-05-07 11:32 41.00478 56.35604 32012 ft 440 kts 265°
2026-05-07 11:33 41.00394 56.27513 32013 ft 440 kts 265°
2026-05-07 11:33 41.00298 56.19411 32030 ft 440 kts 265°
2026-05-07 11:34 41.00249 56.11319 32035 ft 440 kts 265°
2026-05-07 11:34 41.00132 56.03228 32036 ft 440 kts 264°
2026-05-07 11:35 41.00000 55.95253 32036 ft 438 kts 264°
2026-05-07 11:35 40.99860 55.87102 32038 ft 437 kts 264°
2026-05-07 11:36 40.99722 55.79067 32039 ft 437 kts 264°
2026-05-07 11:36 40.99588 55.71020 32041 ft 437 kts 264°
2026-05-07 11:37 40.99446 55.62967 32041 ft 437 kts 264°
2026-05-07 11:37 40.99298 55.54928 32042 ft 437 kts 264°
2026-05-07 11:38 40.99144 55.46894 32043 ft 437 kts 264°
2026-05-07 11:38 40.98986 55.38850 32045 ft 437 kts 264°
2026-05-07 11:39 40.98839 55.30810 32046 ft 437 kts 265°
2026-05-07 11:39 40.98759 55.22754 32047 ft 437 kts 264°
2026-05-07 11:40 40.98599 55.14714 32046 ft 437 kts 264°
2026-05-07 11:40 40.98417 55.06673 32047 ft 437 kts 264°
2026-05-07 11:41 40.98231 54.98645 32046 ft 436 kts 264°
2026-05-07 11:41 40.98045 54.90624 32048 ft 436 kts 264°
2026-05-07 11:42 40.97851 54.82650 32049 ft 436 kts 264°
2026-05-07 11:42 40.97641 54.74628 32049 ft 436 kts 264°
2026-05-07 11:43 40.97424 54.66598 32049 ft 436 kts 264°
2026-05-07 11:43 40.97199 54.58574 32049 ft 436 kts 264°
2026-05-07 11:44 40.96969 54.50556 32050 ft 436 kts 264°
2026-05-07 11:44 40.96739 54.42540 32049 ft 436 kts 264°
2026-05-07 11:45 40.96563 54.34530 32050 ft 435 kts 264°
2026-05-07 11:45 40.96353 54.26464 32049 ft 436 kts 264°
2026-05-07 11:46 40.96126 54.18456 32052 ft 435 kts 264°
2026-05-07 11:46 40.95891 54.10504 32087 ft 435 kts 263°
2026-05-07 11:47 40.95647 54.02507 32090 ft 436 kts 263°
2026-05-07 11:47 40.95396 53.94498 32092 ft 435 kts 264°
2026-05-07 11:48 40.95141 53.86513 32094 ft 435 kts 263°
2026-05-07 11:48 40.94880 53.78527 32096 ft 435 kts 263°
2026-05-07 11:49 40.94613 53.70533 32098 ft 435 kts 263°
2026-05-07 11:49 40.94341 53.62544 32100 ft 435 kts 263°
2026-05-07 11:50 40.94066 53.54557 32102 ft 435 kts 264°
2026-05-07 11:50 40.93820 53.46569 32104 ft 435 kts 263°
2026-05-07 11:51 40.93527 53.38587 32105 ft 435 kts 263°
2026-05-07 11:51 40.93220 53.30606 32107 ft 434 kts 263°
2026-05-07 11:52 40.92908 53.22629 32109 ft 434 kts 263°
2026-05-07 11:52 40.92596 53.14650 32110 ft 434 kts 263°
2026-05-07 11:53 40.92272 53.06675 32111 ft 434 kts 263°
2026-05-07 11:53 40.91971 52.98711 32118 ft 434 kts 263°
2026-05-07 11:54 40.91647 52.90724 32123 ft 434 kts 263°
2026-05-07 11:54 40.91299 52.82806 32122 ft 434 kts 263°
2026-05-07 11:55 40.90940 52.74838 32122 ft 434 kts 263°
2026-05-07 11:55 40.90580 52.66881 32122 ft 434 kts 263°
2026-05-07 11:56 40.90050 52.58938 32121 ft 432 kts 258°
2026-05-07 11:56 40.88898 52.51155 32120 ft 431 kts 255°
2026-05-07 11:57 40.87610 52.43426 32119 ft 430 kts 255°
2026-05-07 11:57 40.86357 52.35710 32117 ft 429 kts 255°
2026-05-07 11:58 40.85115 52.27995 32117 ft 429 kts 255°
2026-05-07 11:58 40.83875 52.20292 32115 ft 429 kts 255°
2026-05-07 11:59 40.82664 52.12582 32114 ft 429 kts 256°
2026-05-07 11:59 40.81461 52.04885 32113 ft 429 kts 255°
2026-05-07 12:00 40.80231 51.97191 32109 ft 429 kts 255°
2026-05-07 12:00 40.79000 51.89471 32109 ft 430 kts 256°
2026-05-07 12:01 40.77773 51.81757 32107 ft 430 kts 255°
2026-05-07 12:01 40.76508 51.74049 32103 ft 429 kts 255°
2026-05-07 12:02 40.75243 51.66414 32101 ft 429 kts 255°
2026-05-07 12:02 40.73955 51.58662 32099 ft 429 kts 255°
2026-05-07 12:03 40.72717 51.51022 32094 ft 430 kts 258°
2026-05-07 12:03 40.72127 51.43137 32096 ft 433 kts 263°
2026-05-07 12:04 40.71856 51.35182 32093 ft 435 kts 263°
2026-05-07 12:04 40.71553 51.27223 32091 ft 435 kts 263°
2026-05-07 12:05 40.71223 51.19254 32090 ft 435 kts 263°
2026-05-07 12:05 40.70880 51.11281 32089 ft 436 kts 263°
2026-05-07 12:06 40.70540 51.03308 32093 ft 437 kts 263°
2026-05-07 12:06 40.70293 50.96667 32089 ft 437 kts 263°
2026-05-07 12:07 40.69961 50.88663 32090 ft 438 kts 263°
2026-05-07 12:07 40.69645 50.80656 32088 ft 438 kts 263°
2026-05-07 12:08 40.69291 50.72650 32087 ft 438 kts 263°
2026-05-07 12:08 40.68913 50.64638 32087 ft 438 kts 263°
2026-05-07 12:09 40.68528 50.56624 32086 ft 439 kts 263°
2026-05-07 12:09 40.68141 50.48604 32085 ft 438 kts 263°
2026-05-07 12:10 40.67754 50.40593 32084 ft 438 kts 263°
2026-05-07 12:10 40.67356 50.32585 32084 ft 438 kts 262°
2026-05-07 12:11 40.66948 50.24569 32084 ft 438 kts 262°
2026-05-07 12:11 40.66534 50.16562 32083 ft 438 kts 262°
2026-05-07 12:12 40.66116 50.08571 32083 ft 438 kts 262°
2026-05-07 12:12 40.65692 50.00558 32083 ft 438 kts 262°
2026-05-07 12:13 40.65311 49.92558 32083 ft 438 kts 263°
2026-05-07 12:13 40.64915 49.84538 32083 ft 439 kts 262°
2026-05-07 12:14 40.64496 49.76534 32084 ft 438 kts 262°
2026-05-07 12:14 40.64070 49.68579 32085 ft 439 kts 262°
2026-05-07 12:15 40.63641 49.60557 32082 ft 440 kts 263°
2026-05-07 12:15 40.63230 49.52533 32082 ft 439 kts 262°
2026-05-07 12:16 40.62774 49.44515 32083 ft 439 kts 262°
2026-05-07 12:16 40.62307 49.36506 32082 ft 439 kts 262°
2026-05-07 12:17 40.61835 49.28491 32083 ft 440 kts 262°
2026-05-07 12:17 40.61363 49.20465 32083 ft 440 kts 262°
2026-05-07 12:18 40.61072 49.12409 32084 ft 441 kts 265°
2026-05-07 12:18 40.60955 49.04348 32084 ft 441 kts 265°
2026-05-07 12:19 40.60795 48.96259 32085 ft 442 kts 264°
2026-05-07 12:19 40.60615 48.88183 32086 ft 442 kts 264°
2026-05-07 12:20 40.60426 48.80091 32087 ft 442 kts 264°
2026-05-07 12:20 40.60248 48.72015 32089 ft 442 kts 265°
2026-05-07 12:21 40.60098 48.63938 32090 ft 441 kts 264°
2026-05-07 12:21 40.59939 48.55875 32092 ft 441 kts 264°
2026-05-07 12:22 40.59757 48.47796 32093 ft 441 kts 264°
2026-05-07 12:22 40.59541 48.39731 32095 ft 441 kts 264°
2026-05-07 12:23 40.59316 48.31664 32097 ft 441 kts 264°
2026-05-07 12:23 40.59088 48.23599 32099 ft 441 kts 264°
2026-05-07 12:24 40.58863 48.15533 32101 ft 441 kts 264°
2026-05-07 12:24 40.58657 48.07519 32104 ft 441 kts 264°
2026-05-07 12:25 40.58428 47.99458 32106 ft 440 kts 264°
2026-05-07 12:25 40.58353 47.91396 32107 ft 442 kts 268°
2026-05-07 12:26 40.58647 47.83299 32108 ft 444 kts 268°
2026-05-07 12:26 40.58934 47.75175 32108 ft 445 kts 268°
2026-05-07 12:27 40.59195 47.67040 32109 ft 444 kts 268°
2026-05-07 12:27 40.59465 47.58927 32109 ft 445 kts 269°
2026-05-07 12:28 40.59778 47.50789 32110 ft 445 kts 268°
2026-05-07 12:28 40.60023 47.42654 32110 ft 445 kts 268°
2026-05-07 12:29 40.60252 47.34508 32111 ft 445 kts 268°
2026-05-07 12:29 40.60466 47.26751 32111 ft 445 kts 268°
2026-05-07 12:30 40.60712 47.18611 32110 ft 446 kts 270°
2026-05-07 12:30 40.61414 47.10468 32112 ft 449 kts 273°
2026-05-07 12:31 40.62262 47.02598 32083 ft 446 kts 273°
2026-05-07 12:31 40.63094 46.94517 32082 ft 445 kts 273°
2026-05-07 12:32 40.63906 46.86424 32084 ft 446 kts 273°
2026-05-07 12:32 40.64706 46.78327 32085 ft 447 kts 272°
2026-05-07 12:33 40.65954 46.66168 32083 ft 447 kts 273°
2026-05-07 12:33 40.66782 46.58041 32086 ft 447 kts 273°
2026-05-07 12:34 40.67587 46.49922 32084 ft 447 kts 273°
2026-05-07 12:34 40.68380 46.41803 32083 ft 447 kts 272°
2026-05-07 12:35 40.69162 46.33724 32084 ft 447 kts 272°
2026-05-07 12:35 40.69942 46.25599 32081 ft 447 kts 272°
2026-05-07 12:36 40.70717 46.17465 32083 ft 447 kts 272°
2026-05-07 12:36 40.71486 46.09331 32083 ft 448 kts 272°
2026-05-07 12:37 40.72249 46.01198 32082 ft 447 kts 272°
2026-05-07 12:37 40.73008 45.93045 32083 ft 449 kts 272°
2026-05-07 12:38 40.73803 45.84862 32090 ft 450 kts 272°
2026-05-07 12:38 40.74551 45.76662 32093 ft 450 kts 272°
2026-05-07 12:39 40.75282 45.68466 32094 ft 450 kts 272°
2026-05-07 12:39 40.76009 45.60265 32095 ft 450 kts 272°
2026-05-07 12:40 40.76737 45.52050 32096 ft 451 kts 272°
2026-05-07 12:40 40.77281 45.43820 32096 ft 450 kts 269°
2026-05-07 12:41 40.77595 45.35578 32095 ft 450 kts 269°
2026-05-07 12:41 40.77925 45.27342 32094 ft 450 kts 269°
2026-05-07 12:42 40.78265 45.19079 32092 ft 451 kts 269°
2026-05-07 12:42 40.78605 45.10806 32092 ft 452 kts 269°
2026-05-07 12:43 40.78962 45.02513 32089 ft 453 kts 270°
2026-05-07 12:43 40.79334 44.94699 32087 ft 453 kts 270°
2026-05-07 12:44 40.79696 44.86390 32078 ft 454 kts 269°
2026-05-07 12:44 40.80041 44.78074 32076 ft 454 kts 269°
2026-05-07 12:45 40.80375 44.69812 32074 ft 454 kts 269°
2026-05-07 12:45 40.80703 44.61497 32073 ft 454 kts 269°
2026-05-07 12:46 40.81026 44.53183 32073 ft 454 kts 269°
2026-05-07 12:46 40.81342 44.44858 32149 ft 454 kts 269°
2026-05-07 12:47 40.81653 44.36524 32146 ft 455 kts 269°
2026-05-07 12:47 40.81957 44.28191 32142 ft 454 kts 269°
2026-05-07 12:48 40.82291 44.19860 32149 ft 454 kts 269°
2026-05-07 12:48 40.82587 44.11532 32157 ft 454 kts 269°
2026-05-07 12:49 40.82861 44.03194 32163 ft 455 kts 269°
2026-05-07 12:49 40.83129 43.94817 32251 ft 460 kts 269°
2026-05-07 12:50 40.83263 43.90601 32521 ft 460 kts 269°
2026-05-07 12:50 40.83399 43.86387 32781 ft 459 kts 269°
2026-05-07 12:50 40.83533 43.82171 33013 ft 460 kts 269°
2026-05-07 12:50 40.83683 43.77961 33234 ft 460 kts 269°
2026-05-07 12:51 40.83826 43.73741 33466 ft 460 kts 269°
2026-05-07 12:51 40.83967 43.69521 33683 ft 460 kts 269°
2026-05-07 12:51 40.84131 43.65303 33867 ft 460 kts 271°
2026-05-07 12:51 40.84364 43.61097 34072 ft 460 kts 271°
2026-05-07 12:52 40.84611 43.56873 34176 ft 460 kts 271°
2026-05-07 12:52 40.84849 43.52651 34171 ft 461 kts 271°
2026-05-07 12:52 40.85307 43.44202 34180 ft 462 kts 271°
2026-05-07 12:53 40.85678 43.37160 34184 ft 462 kts 271°
2026-05-07 12:53 40.86115 43.28690 34188 ft 463 kts 271°
2026-05-07 12:54 40.86651 43.18821 34190 ft 464 kts 271°
2026-05-07 12:54 40.87058 43.11690 34192 ft 464 kts 271°
2026-05-07 12:55 40.87516 43.03178 34194 ft 465 kts 271°
2026-05-07 12:55 40.87956 42.94648 34195 ft 465 kts 271°
2026-05-07 12:56 40.88386 42.86107 34194 ft 466 kts 271°
2026-05-07 12:56 40.88806 42.77606 34193 ft 467 kts 271°
2026-05-07 12:57 40.89223 42.69041 34191 ft 467 kts 271°
2026-05-07 12:57 40.89633 42.60464 34197 ft 468 kts 271°
2026-05-07 12:58 40.90038 42.51879 34197 ft 468 kts 271°
2026-05-07 12:58 40.90436 42.43288 34197 ft 469 kts 271°
2026-05-07 12:59 40.90792 42.35493 34197 ft 469 kts 271°
2026-05-07 12:59 40.90874 42.33674 34197 ft 469 kts 271°
2026-05-07 13:00 40.91259 42.25075 34197 ft 469 kts 271°
2026-05-07 13:00 40.91638 42.16461 34188 ft 470 kts 271°
2026-05-07 13:01 40.92011 42.07843 34188 ft 469 kts 271°
2026-05-07 13:01 40.92378 41.99223 34190 ft 469 kts 271°
2026-05-07 13:02 40.92739 41.90563 34192 ft 474 kts 271°
2026-05-07 13:02 40.92824 41.88513 34192 ft 475 kts 271°
2026-05-07 13:03 40.93180 41.79793 34193 ft 475 kts 271°
2026-05-07 13:03 40.93530 41.71069 34194 ft 475 kts 271°
2026-05-07 13:04 40.93874 41.62347 34195 ft 475 kts 271°
2026-05-07 13:04 40.94210 41.53613 34209 ft 476 kts 271°
2026-05-07 13:05 40.94539 41.44925 34214 ft 476 kts 271°
2026-05-07 13:05 40.94863 41.36173 34214 ft 477 kts 271°
2026-05-07 13:06 40.95211 41.27410 34218 ft 477 kts 271°
2026-05-07 13:06 40.95534 41.18641 34220 ft 478 kts 271°
2026-05-07 13:07 40.95827 41.09853 34223 ft 478 kts 271°
2026-05-07 13:07 40.96111 41.01051 34224 ft 479 kts 271°
2026-05-07 13:08 40.96396 40.92236 34224 ft 480 kts 271°
2026-05-07 13:08 40.96674 40.83421 34226 ft 480 kts 271°
2026-05-07 13:09 40.96938 40.74586 34226 ft 481 kts 271°
2026-05-07 13:09 40.97195 40.65744 34225 ft 481 kts 271°
2026-05-07 13:10 40.97508 40.56902 34224 ft 481 kts 272°
2026-05-07 13:10 40.97777 40.48041 34223 ft 482 kts 271°
2026-05-07 13:11 40.98014 40.39177 34222 ft 482 kts 271°
2026-05-07 13:11 40.98244 40.30295 34222 ft 483 kts 271°
2026-05-07 13:12 40.98474 40.21414 34223 ft 483 kts 271°
2026-05-07 13:12 40.98735 40.12534 34224 ft 483 kts 271°
2026-05-07 13:13 40.98956 40.03721 34225 ft 484 kts 271°
2026-05-07 13:13 40.99158 39.94819 34228 ft 485 kts 271°
2026-05-07 13:14 40.99359 39.85861 34227 ft 488 kts 272°
2026-05-07 13:14 40.99703 39.76903 34230 ft 487 kts 276°
2026-05-07 13:15 41.00533 39.68218 34230 ft 487 kts 278°
2026-05-07 13:15 41.01414 39.59333 34230 ft 487 kts 277°
2026-05-07 13:16 41.02309 39.50447 34229 ft 487 kts 278°
2026-05-07 13:16 41.03163 39.41547 34228 ft 487 kts 277°
2026-05-07 13:17 41.03980 39.32635 34227 ft 487 kts 277°
2026-05-07 13:17 41.04790 39.23719 34226 ft 488 kts 277°
2026-05-07 13:18 41.05601 39.14798 34223 ft 488 kts 277°
2026-05-07 13:18 41.06462 39.05878 34221 ft 488 kts 278°
2026-05-07 13:19 41.07290 38.97006 34218 ft 488 kts 278°
2026-05-07 13:19 41.08097 38.88072 34215 ft 488 kts 277°
2026-05-07 13:20 41.08899 38.79133 34212 ft 489 kts 278°
2026-05-07 13:20 41.09702 38.70185 34209 ft 489 kts 278°
2026-05-07 13:21 41.10450 38.61216 34206 ft 489 kts 277°
2026-05-07 13:21 41.11230 38.52252 34205 ft 489 kts 278°
2026-05-07 13:22 41.11981 38.43276 34203 ft 490 kts 277°
2026-05-07 13:22 41.12718 38.34296 34202 ft 490 kts 277°
2026-05-07 13:23 41.13457 38.25309 34201 ft 490 kts 278°
2026-05-07 13:23 41.14215 38.16316 34201 ft 491 kts 277°
2026-05-07 13:24 41.14927 38.07313 34200 ft 491 kts 277°
2026-05-07 13:24 41.15629 37.98304 34199 ft 491 kts 277°
2026-05-07 13:25 41.16330 37.89306 34198 ft 490 kts 278°
2026-05-07 13:25 41.17106 37.80396 34197 ft 489 kts 279°
2026-05-07 13:26 41.17882 37.71423 34195 ft 489 kts 278°
2026-05-07 13:26 41.18646 37.62445 34192 ft 489 kts 278°
2026-05-07 13:27 41.19112 37.53435 34190 ft 489 kts 275°
2026-05-07 13:27 41.19773 37.44454 34186 ft 489 kts 279°
2026-05-07 13:28 41.20475 37.35489 34182 ft 488 kts 277°
2026-05-07 13:28 41.21115 37.26516 34179 ft 488 kts 277°
2026-05-07 13:29 41.21778 37.17559 34177 ft 487 kts 278°
2026-05-07 13:29 41.22483 37.08619 34175 ft 486 kts 278°
2026-05-07 13:30 41.23172 36.99682 34173 ft 486 kts 278°
2026-05-07 13:30 41.23916 36.90773 34172 ft 485 kts 278°
2026-05-07 13:31 41.24609 36.81856 34171 ft 485 kts 278°
2026-05-07 13:31 41.25272 36.72938 34171 ft 485 kts 278°
2026-05-07 13:32 41.25928 36.64032 34171 ft 484 kts 278°
2026-05-07 13:32 41.26744 36.55167 34173 ft 482 kts 284°
2026-05-07 13:33 41.28580 36.46621 34171 ft 480 kts 290°
2026-05-07 13:33 41.30764 36.38236 34170 ft 479 kts 291°
2026-05-07 13:34 41.33965 36.25693 34166 ft 480 kts 290°
2026-05-07 13:35 41.36079 36.17272 34162 ft 480 kts 290°
2026-05-07 13:35 41.38203 36.08842 34157 ft 480 kts 291°
2026-05-07 13:36 41.40360 36.00428 34154 ft 480 kts 290°
2026-05-07 13:36 41.42476 35.92022 34148 ft 478 kts 290°
2026-05-07 13:37 41.44570 35.83627 34146 ft 478 kts 290°
2026-05-07 13:37 41.46658 35.75216 34143 ft 478 kts 290°
2026-05-07 13:38 41.48738 35.66799 34142 ft 477 kts 290°
2026-05-07 13:38 41.50805 35.58404 34140 ft 477 kts 290°
2026-05-07 13:39 41.52871 35.49982 34134 ft 477 kts 290°
2026-05-07 13:39 41.54926 35.41577 34136 ft 476 kts 290°
2026-05-07 13:40 41.56971 35.33178 34137 ft 475 kts 290°
2026-05-07 13:40 41.59008 35.24787 34138 ft 474 kts 290°
2026-05-07 13:41 41.61034 35.16406 34140 ft 474 kts 290°
2026-05-07 13:41 41.63052 35.08031 34140 ft 473 kts 290°
2026-05-07 13:42 41.65066 34.99670 34141 ft 472 kts 291°
2026-05-07 13:42 41.66758 34.92740 34141 ft 472 kts 290°
2026-05-07 13:43 41.69066 34.83024 34142 ft 471 kts 290°
2026-05-07 13:43 41.71034 34.74674 34143 ft 470 kts 290°
2026-05-07 13:44 41.72678 34.67677 34144 ft 470 kts 290°
2026-05-07 13:44 41.74639 34.59336 34145 ft 469 kts 290°
2026-05-07 13:45 41.76589 34.50999 34147 ft 469 kts 290°
2026-05-07 13:45 41.78514 34.42711 34149 ft 469 kts 290°
2026-05-07 13:46 41.80445 34.34357 34151 ft 469 kts 290°
2026-05-07 13:46 41.82369 34.26011 34152 ft 468 kts 290°
2026-05-07 13:47 41.84289 34.17663 34155 ft 469 kts 290°
2026-05-07 13:47 41.86266 34.09332 34157 ft 469 kts 291°
2026-05-07 13:48 41.88224 34.00991 34157 ft 469 kts 290°
2026-05-07 13:48 41.90128 33.92621 34158 ft 469 kts 290°
2026-05-07 13:49 41.92022 33.84242 34159 ft 469 kts 290°
2026-05-07 13:49 41.93912 33.75866 34160 ft 469 kts 290°
2026-05-07 13:50 41.95769 33.67466 34161 ft 469 kts 288°
2026-05-07 13:50 41.97372 33.58971 34161 ft 469 kts 287°
2026-05-07 13:51 41.98970 33.50475 34160 ft 469 kts 288°
2026-05-07 13:51 42.00644 33.42021 34159 ft 468 kts 288°
2026-05-07 13:52 42.02269 33.33512 34160 ft 470 kts 288°
2026-05-07 13:52 42.03876 33.24982 34163 ft 470 kts 288°
2026-05-07 13:53 42.05474 33.16466 34163 ft 469 kts 288°
2026-05-07 13:53 42.07071 33.07957 34162 ft 469 kts 287°
2026-05-07 13:54 42.08792 32.99557 34161 ft 468 kts 289°
2026-05-07 13:54 42.10562 32.91127 34159 ft 467 kts 289°
2026-05-07 13:55 42.12273 32.82694 34157 ft 467 kts 289°
2026-05-07 13:55 42.13973 32.74258 34157 ft 466 kts 289°
2026-05-07 13:56 42.15668 32.65835 34155 ft 465 kts 289°
2026-05-07 13:56 42.17374 32.57427 34154 ft 464 kts 289°
2026-05-07 13:57 42.19077 32.49030 34154 ft 464 kts 289°
2026-05-07 13:57 42.20740 32.40632 34152 ft 463 kts 288°
2026-05-07 13:58 42.22394 32.32231 34152 ft 463 kts 288°
2026-05-07 13:58 42.24046 32.23834 34151 ft 463 kts 289°
2026-05-07 13:59 42.25700 32.15447 34150 ft 462 kts 288°
2026-05-07 13:59 42.27344 32.07056 34150 ft 462 kts 288°
2026-05-07 14:00 42.28969 31.98655 34150 ft 462 kts 288°
2026-05-07 14:00 42.30584 31.90256 34149 ft 462 kts 288°
2026-05-07 14:01 42.32193 31.81855 34148 ft 462 kts 288°
2026-05-07 14:01 42.33799 31.73440 34140 ft 462 kts 288°
2026-05-07 14:02 42.35416 31.65036 34139 ft 462 kts 289°
2026-05-07 14:02 42.37058 31.56649 34138 ft 462 kts 288°
2026-05-07 14:03 42.38698 31.48252 34138 ft 462 kts 288°
2026-05-07 14:03 42.40299 31.39844 34138 ft 462 kts 288°
2026-05-07 14:04 42.41861 31.31477 34138 ft 462 kts 288°
2026-05-07 14:04 42.43429 31.23041 34138 ft 462 kts 287°
2026-05-07 14:05 42.44992 31.14620 34137 ft 461 kts 287°
2026-05-07 14:05 42.46555 31.06197 34137 ft 461 kts 287°
2026-05-07 14:06 42.48108 30.97773 34136 ft 460 kts 287°
2026-05-07 14:06 42.49649 30.89365 34136 ft 459 kts 287°
2026-05-07 14:07 42.51181 30.80970 34136 ft 459 kts 287°
2026-05-07 14:07 42.52709 30.72569 34136 ft 459 kts 287°
2026-05-07 14:08 42.54289 30.64201 34135 ft 458 kts 288°
2026-05-07 14:08 42.55845 30.55835 34133 ft 457 kts 287°
2026-05-07 14:09 42.57350 30.47458 34136 ft 457 kts 287°
2026-05-07 14:09 42.58844 30.39077 34135 ft 456 kts 287°
2026-05-07 14:10 42.60340 30.30707 34134 ft 456 kts 289°
2026-05-07 14:10 42.61539 30.26770 34141 ft 451 kts 301°
2026-05-07 14:10 42.63163 30.23127 34136 ft 451 kts 305°
2026-05-07 14:11 42.66796 30.16219 34136 ft 448 kts 309°
2026-05-07 14:11 42.70607 30.09521 34134 ft 448 kts 309°
2026-05-07 14:12 42.74411 30.02797 34129 ft 448 kts 309°
2026-05-07 14:12 42.78197 29.96061 34127 ft 448 kts 308°
2026-05-07 14:13 42.81976 29.89314 34128 ft 448 kts 309°
2026-05-07 14:13 42.85800 29.82597 34129 ft 449 kts 309°
2026-05-07 14:14 42.89609 29.75849 34130 ft 449 kts 309°
2026-05-07 14:14 42.93381 29.69121 34131 ft 449 kts 308°
2026-05-07 14:15 42.97173 29.62330 34131 ft 450 kts 308°
2026-05-07 14:15 43.00962 29.55523 34132 ft 450 kts 308°
2026-05-07 14:16 43.04748 29.48703 34133 ft 450 kts 308°
2026-05-07 14:16 43.08532 29.41871 34134 ft 451 kts 308°
2026-05-07 14:17 43.12318 29.35019 34134 ft 451 kts 308°
2026-05-07 14:17 43.16098 29.28162 34133 ft 451 kts 308°
2026-05-07 14:18 43.19875 29.21294 34134 ft 451 kts 308°
2026-05-07 14:18 43.23649 29.14414 34130 ft 452 kts 308°
2026-05-07 14:19 43.27428 29.07510 34130 ft 452 kts 308°
2026-05-07 14:19 43.31206 29.00593 34130 ft 452 kts 308°
2026-05-07 14:20 43.34974 28.93676 34131 ft 452 kts 308°
2026-05-07 14:20 43.38734 28.86757 34130 ft 452 kts 308°
2026-05-07 14:21 43.42493 28.79826 34131 ft 453 kts 308°
2026-05-07 14:21 43.46257 28.72870 34140 ft 453 kts 308°
2026-05-07 14:22 43.50015 28.65908 34140 ft 453 kts 308°
2026-05-07 14:22 43.53771 28.58932 34140 ft 453 kts 308°
2026-05-07 14:23 43.57516 28.51960 34140 ft 453 kts 308°
2026-05-07 14:23 43.61261 28.44971 34139 ft 453 kts 308°
2026-05-07 14:24 43.64985 28.38006 34139 ft 454 kts 308°
2026-05-07 14:24 43.68729 28.30984 34139 ft 454 kts 307°
2026-05-07 14:25 43.72469 28.23956 34139 ft 454 kts 307°
2026-05-07 14:25 43.76204 28.16916 34137 ft 454 kts 307°
2026-05-07 14:26 43.79937 28.09869 34132 ft 454 kts 307°
2026-05-07 14:26 43.83668 28.02806 34131 ft 454 kts 307°
2026-05-07 14:27 43.87391 27.95741 34130 ft 454 kts 307°
2026-05-07 14:27 43.91110 27.88667 34131 ft 454 kts 307°
2026-05-07 14:28 43.94826 27.81579 34130 ft 454 kts 307°
2026-05-07 14:28 43.98530 27.74499 34127 ft 454 kts 307°
2026-05-07 14:29 44.02242 27.67388 34125 ft 454 kts 307°
2026-05-07 14:29 44.05958 27.60274 34122 ft 455 kts 307°
2026-05-07 14:30 44.09044 27.54363 34119 ft 455 kts 307°
2026-05-07 14:30 44.12756 27.47235 34115 ft 455 kts 307°
2026-05-07 14:31 44.16467 27.40090 34103 ft 455 kts 307°
2026-05-07 14:31 44.20173 27.32938 34097 ft 455 kts 306°
2026-05-07 14:32 44.23879 27.25767 34091 ft 456 kts 306°
2026-05-07 14:32 44.27580 27.18588 34077 ft 455 kts 306°
2026-05-07 14:33 44.31246 27.11459 34071 ft 456 kts 306°
2026-05-07 14:33 44.34972 27.04195 34065 ft 456 kts 306°
2026-05-07 14:34 44.38662 26.96984 34060 ft 456 kts 306°
2026-05-07 14:34 44.42344 26.89772 34056 ft 456 kts 305°
2026-05-07 14:35 44.46025 26.82540 34051 ft 456 kts 305°
2026-05-07 14:35 44.49677 26.75351 34045 ft 456 kts 305°
2026-05-07 14:36 44.53371 26.68059 34030 ft 456 kts 305°
2026-05-07 14:36 44.57032 26.60813 34030 ft 456 kts 305°
2026-05-07 14:37 44.60675 26.53587 34027 ft 456 kts 305°
2026-05-07 14:37 44.66157 26.42678 34026 ft 456 kts 304°
2026-05-07 14:38 44.69804 26.35397 34025 ft 456 kts 304°
2026-05-07 14:38 44.73453 26.28094 34025 ft 456 kts 304°
2026-05-07 14:39 44.77091 26.20794 34025 ft 456 kts 304°
2026-05-07 14:39 44.80730 26.13474 34024 ft 456 kts 304°
2026-05-07 14:40 44.84365 26.06142 34022 ft 456 kts 304°
2026-05-07 14:40 44.87992 25.98811 34020 ft 456 kts 304°
2026-05-07 14:41 44.91619 25.91460 34019 ft 457 kts 303°
2026-05-07 14:41 44.95245 25.84089 34018 ft 458 kts 303°
2026-05-07 14:42 44.98876 25.76691 34016 ft 458 kts 303°
2026-05-07 14:42 45.02504 25.69279 34015 ft 458 kts 303°
2026-05-07 14:43 45.06128 25.61857 34014 ft 459 kts 303°
2026-05-07 14:43 45.09747 25.54427 34013 ft 459 kts 303°
2026-05-07 14:44 45.13363 25.46981 34012 ft 459 kts 303°
2026-05-07 14:44 45.16980 25.39516 34010 ft 460 kts 303°
2026-05-07 14:45 45.20597 25.32030 34010 ft 461 kts 303°
2026-05-07 14:45 45.24211 25.24532 34009 ft 461 kts 303°
2026-05-07 14:46 45.27826 25.17010 34009 ft 461 kts 302°
2026-05-07 14:46 45.31435 25.09483 34009 ft 461 kts 302°
2026-05-07 14:47 45.35038 25.01947 34009 ft 462 kts 302°
2026-05-07 14:47 45.38646 24.94379 34010 ft 462 kts 302°
2026-05-07 14:48 45.42254 24.86795 34012 ft 463 kts 302°
2026-05-07 14:48 45.45855 24.79203 34013 ft 462 kts 302°
2026-05-07 14:49 45.49453 24.71596 34015 ft 463 kts 301°
2026-05-07 14:49 45.53048 24.63976 34017 ft 464 kts 301°
2026-05-07 14:50 45.56640 24.56343 34018 ft 464 kts 301°
2026-05-07 14:50 45.60208 24.48738 34020 ft 464 kts 301°
2026-05-07 14:51 45.63799 24.41066 34021 ft 464 kts 301°
2026-05-07 14:51 45.67379 24.33394 34022 ft 464 kts 301°
2026-05-07 14:52 45.70959 24.25705 34023 ft 464 kts 300°
2026-05-07 14:52 45.74536 24.17996 34024 ft 464 kts 300°
2026-05-07 14:53 45.78101 24.10295 34023 ft 465 kts 300°
2026-05-07 14:53 45.81671 24.02564 34023 ft 464 kts 300°
2026-05-07 14:54 45.85229 23.94836 34023 ft 464 kts 300°
2026-05-07 14:54 45.88785 23.87090 34022 ft 465 kts 300°
2026-05-07 14:55 45.92335 23.79338 34020 ft 464 kts 300°
2026-05-07 14:55 45.95878 23.71578 34019 ft 465 kts 300°
2026-05-07 14:56 45.99421 23.63796 34022 ft 465 kts 300°
2026-05-07 14:56 46.02964 23.55995 34024 ft 465 kts 300°
2026-05-07 14:57 46.06499 23.48189 34024 ft 466 kts 300°
2026-05-07 14:57 46.10029 23.40368 34021 ft 466 kts 300°
2026-05-07 14:58 46.13562 23.32524 34024 ft 467 kts 300°
2026-05-07 14:58 46.17091 23.24666 34024 ft 467 kts 300°
2026-05-07 14:59 46.20620 23.16784 34026 ft 468 kts 300°
2026-05-07 14:59 46.24150 23.08880 34032 ft 469 kts 300°
2026-05-07 15:00 46.27679 23.00954 34033 ft 469 kts 300°
2026-05-07 15:00 46.31185 22.93057 34025 ft 470 kts 300°
2026-05-07 15:01 46.34715 22.85085 34024 ft 471 kts 300°
2026-05-07 15:01 46.38243 22.77092 34026 ft 471 kts 300°
2026-05-07 15:02 46.41771 22.69079 34027 ft 472 kts 300°
2026-05-07 15:02 46.45298 22.61044 34029 ft 473 kts 299°
2026-05-07 15:03 46.48822 22.52992 34031 ft 473 kts 299°
2026-05-07 15:03 46.52346 22.44915 34033 ft 473 kts 299°
2026-05-07 15:04 46.55867 22.36824 34036 ft 473 kts 299°
2026-05-07 15:04 46.59380 22.28726 34038 ft 474 kts 299°
2026-05-07 15:05 46.62887 22.20620 34039 ft 474 kts 299°
2026-05-07 15:05 46.66389 22.12500 34041 ft 474 kts 299°
2026-05-07 15:06 46.69889 22.04363 34043 ft 474 kts 299°
2026-05-07 15:06 46.73383 21.96216 34045 ft 475 kts 299°
2026-05-07 15:07 46.76890 21.88011 34045 ft 478 kts 298°
2026-05-07 15:07 46.80377 21.79831 34046 ft 477 kts 298°
2026-05-07 15:08 46.83876 21.71596 34046 ft 477 kts 298°
2026-05-07 15:08 46.87364 21.63365 34046 ft 477 kts 298°
2026-05-07 15:09 46.90851 21.55111 34047 ft 477 kts 298°
2026-05-07 15:09 46.94338 21.46832 34046 ft 477 kts 297°
2026-05-07 15:10 46.97812 21.38560 34044 ft 477 kts 297°
2026-05-07 15:10 47.01289 21.30254 34024 ft 478 kts 297°
2026-05-07 15:11 47.04754 21.21952 34029 ft 478 kts 297°
2026-05-07 15:11 47.08219 21.13627 34033 ft 478 kts 297°
2026-05-07 15:12 47.11678 21.05289 34032 ft 479 kts 297°
2026-05-07 15:12 47.15133 20.96934 34029 ft 479 kts 297°
2026-05-07 15:13 47.18585 20.88564 34027 ft 479 kts 296°
2026-05-07 15:13 47.22031 20.80179 34026 ft 479 kts 296°
2026-05-07 15:14 47.25474 20.71778 34025 ft 479 kts 296°
2026-05-07 15:14 47.28911 20.63366 34024 ft 479 kts 296°
2026-05-07 15:15 47.31759 20.56375 34023 ft 479 kts 296°
2026-05-07 15:15 47.35224 20.47958 34021 ft 480 kts 296°
2026-05-07 15:16 47.38650 20.39522 34019 ft 479 kts 295°
2026-05-07 15:16 47.42045 20.31071 34020 ft 479 kts 295°
2026-05-07 15:17 47.45430 20.22621 34022 ft 478 kts 295°
2026-05-07 15:17 47.48821 20.14152 34021 ft 478 kts 295°
2026-05-07 15:18 47.52335 20.05780 34021 ft 479 kts 298°
2026-05-07 15:18 47.56042 19.97576 34019 ft 480 kts 298°
2026-05-07 15:19 47.59729 19.89294 34009 ft 482 kts 297°
2026-05-07 15:19 47.63394 19.80982 34003 ft 481 kts 297°
2026-05-07 15:20 47.67014 19.72728 34001 ft 481 kts 297°
2026-05-07 15:20 47.70697 19.64429 33998 ft 481 kts 297°
2026-05-07 15:21 47.74387 19.56126 33998 ft 481 kts 297°
2026-05-07 15:21 47.78047 19.47796 33997 ft 482 kts 297°
2026-05-07 15:22 47.81699 19.39436 33997 ft 482 kts 297°
2026-05-07 15:22 47.85344 19.31054 33996 ft 483 kts 297°
2026-05-07 15:23 47.88987 19.22650 33993 ft 483 kts 297°
2026-05-07 15:23 47.92627 19.14222 33991 ft 484 kts 297°
2026-05-07 15:24 47.96263 19.05782 33990 ft 484 kts 296°
2026-05-07 15:24 47.99900 18.97308 33990 ft 485 kts 296°
2026-05-07 15:25 48.03537 18.88810 33987 ft 485 kts 296°
2026-05-07 15:25 48.07169 18.80296 33987 ft 486 kts 296°
2026-05-07 15:26 48.10796 18.71767 33985 ft 487 kts 296°
2026-05-07 15:26 48.14426 18.63204 33984 ft 487 kts 295°
2026-05-07 15:27 48.18052 18.54626 33979 ft 488 kts 295°
2026-05-07 15:27 48.21672 18.46032 33977 ft 488 kts 295°
2026-05-07 15:28 48.25293 18.37407 33976 ft 489 kts 295°
2026-05-07 15:28 48.28916 18.28752 33973 ft 488 kts 295°
2026-05-07 15:29 48.32518 18.20117 33972 ft 488 kts 295°
2026-05-07 15:29 48.36114 18.11472 33970 ft 488 kts 295°
2026-05-07 15:30 48.39711 18.02797 33969 ft 488 kts 295°
2026-05-07 15:30 48.43295 17.94124 33965 ft 486 kts 295°
2026-05-07 15:31 48.46852 17.85489 33965 ft 484 kts 294°
2026-05-07 15:31 48.50370 17.76919 33965 ft 484 kts 294°
2026-05-07 15:32 48.53914 17.68259 33965 ft 485 kts 294°
2026-05-07 15:32 48.57448 17.59595 33964 ft 485 kts 294°
2026-05-07 15:33 48.60978 17.50913 33963 ft 485 kts 294°
2026-05-07 15:33 48.64542 17.42247 33963 ft 485 kts 295°
2026-05-07 15:34 48.68056 17.33538 33961 ft 485 kts 294°
2026-05-07 15:34 48.71551 17.24808 33960 ft 485 kts 294°
2026-05-07 15:35 48.75048 17.16050 33958 ft 485 kts 294°
2026-05-07 15:35 48.78540 17.07296 33956 ft 485 kts 294°
2026-05-07 15:36 48.81770 16.98333 33954 ft 483 kts 291°
2026-05-07 15:36 48.84880 16.89289 33950 ft 483 kts 291°
2026-05-07 15:37 48.88015 16.80265 33947 ft 483 kts 291°
2026-05-07 15:37 48.91151 16.71247 33944 ft 483 kts 291°
2026-05-07 15:38 48.94294 16.62199 33943 ft 484 kts 291°
2026-05-07 15:38 48.97491 16.53188 33942 ft 484 kts 292°
2026-05-07 15:39 49.00658 16.44136 33945 ft 485 kts 292°
2026-05-07 15:39 49.03843 16.35077 33950 ft 484 kts 291°
2026-05-07 15:40 49.06969 16.25965 33957 ft 485 kts 291°
2026-05-07 15:40 49.10083 16.16833 33962 ft 485 kts 291°
2026-05-07 15:41 49.13174 16.07752 33964 ft 486 kts 291°
2026-05-07 15:41 49.16351 15.98626 33964 ft 488 kts 294°
2026-05-07 15:42 49.19845 15.89696 33964 ft 490 kts 296°
2026-05-07 15:42 49.23354 15.80759 33964 ft 491 kts 295°
2026-05-07 15:43 49.26846 15.71754 33963 ft 491 kts 295°
2026-05-07 15:43 49.30317 15.62746 33961 ft 491 kts 295°
2026-05-07 15:44 49.33790 15.53750 33960 ft 491 kts 296°
2026-05-07 15:44 49.37311 15.44776 33959 ft 491 kts 295°
2026-05-07 15:45 49.40800 15.35746 33957 ft 491 kts 295°
2026-05-07 15:45 49.44267 15.26699 33956 ft 491 kts 295°
2026-05-07 15:46 49.49443 15.13114 33956 ft 491 kts 295°
2026-05-07 15:47 49.52879 15.04055 33956 ft 491 kts 295°
2026-05-07 15:47 49.56312 14.94970 33957 ft 491 kts 296°
2026-05-07 15:48 49.59740 14.85868 33957 ft 490 kts 296°
2026-05-07 15:48 49.63097 14.76922 33958 ft 491 kts 296°
2026-05-07 15:49 49.66542 14.67709 33959 ft 491 kts 296°
2026-05-07 15:49 49.69947 14.58572 33961 ft 491 kts 296°
2026-05-07 15:50 49.73347 14.49415 33967 ft 491 kts 296°
2026-05-07 15:50 49.76776 14.40280 34176 ft 492 kts 296°
2026-05-07 15:50 49.78481 14.35684 34409 ft 492 kts 296°
2026-05-07 15:51 49.80171 14.31082 34693 ft 492 kts 296°
2026-05-07 15:51 49.81855 14.26475 34928 ft 492 kts 296°
2026-05-07 15:51 49.83535 14.21868 35154 ft 492 kts 296°
2026-05-07 15:51 49.85218 14.17246 35379 ft 492 kts 296°
2026-05-07 15:52 49.86897 14.12632 35596 ft 491 kts 296°
2026-05-07 15:52 49.88578 14.08014 35802 ft 492 kts 296°
2026-05-07 15:52 49.90258 14.03396 35943 ft 492 kts 296°
2026-05-07 15:53 49.93580 13.94114 35972 ft 492 kts 296°
2026-05-07 15:53 49.96876 13.84825 35975 ft 491 kts 296°
2026-05-07 15:54 50.00164 13.75519 35978 ft 491 kts 296°
2026-05-07 15:54 50.03448 13.66192 35981 ft 491 kts 296°
2026-05-07 15:55 50.06722 13.56864 35984 ft 491 kts 296°
2026-05-07 15:55 50.10034 13.47635 35986 ft 491 kts 296°
2026-05-07 15:56 50.13332 13.38319 35985 ft 491 kts 296°
2026-05-07 15:56 50.16609 13.28965 35991 ft 491 kts 296°
2026-05-07 15:57 50.19870 13.19610 35995 ft 491 kts 296°
2026-05-07 15:57 50.23123 13.10237 35996 ft 491 kts 296°
2026-05-07 15:58 50.26406 13.00893 35995 ft 490 kts 296°
2026-05-07 15:58 50.29641 12.91502 35995 ft 490 kts 296°
2026-05-07 15:59 50.32848 12.82095 35997 ft 490 kts 296°
2026-05-07 15:59 50.36050 12.72674 36001 ft 490 kts 296°
2026-05-07 16:00 50.39258 12.63258 36005 ft 490 kts 297°
2026-05-07 16:00 50.42760 12.54083 36012 ft 490 kts 300°
2026-05-07 16:01 50.46321 12.45052 36020 ft 490 kts 300°
2026-05-07 16:01 50.49871 12.35919 36026 ft 490 kts 299°
2026-05-07 16:02 50.53401 12.26763 36028 ft 490 kts 299°
2026-05-07 16:02 50.56919 12.17600 36028 ft 490 kts 300°
2026-05-07 16:03 50.60500 12.08483 36029 ft 490 kts 300°
2026-05-07 16:03 50.63482 12.00804 36030 ft 490 kts 300°
2026-05-07 16:04 50.66989 11.91681 36032 ft 489 kts 300°
2026-05-07 16:04 50.70493 11.82509 36037 ft 489 kts 300°
2026-05-07 16:05 50.73994 11.73306 36040 ft 489 kts 300°
2026-05-07 16:05 50.77485 11.64095 36045 ft 489 kts 299°
2026-05-07 16:06 50.80964 11.54879 36048 ft 488 kts 299°
2026-05-07 16:06 50.84434 11.45655 36050 ft 488 kts 299°
2026-05-07 16:07 50.87907 11.36388 36051 ft 488 kts 299°
2026-05-07 16:07 50.91365 11.27128 36052 ft 488 kts 299°
2026-05-07 16:08 50.94816 11.17855 36052 ft 488 kts 299°
2026-05-07 16:08 50.98255 11.08578 36053 ft 488 kts 299°
2026-05-07 16:09 51.01694 10.99272 36053 ft 488 kts 299°
2026-05-07 16:09 51.05097 10.90026 36054 ft 488 kts 299°
2026-05-07 16:10 51.08511 10.80717 36054 ft 488 kts 299°
2026-05-07 16:10 51.11964 10.71424 36056 ft 487 kts 299°
2026-05-07 16:11 51.15356 10.62091 36058 ft 487 kts 299°
2026-05-07 16:11 51.18729 10.52732 36060 ft 488 kts 299°
2026-05-07 16:12 51.22107 10.43334 36063 ft 487 kts 299°
2026-05-07 16:12 51.25470 10.33962 36065 ft 487 kts 298°
2026-05-07 16:13 51.28599 10.24348 36068 ft 487 kts 296°
2026-05-07 16:13 51.31639 10.14663 36069 ft 487 kts 296°
2026-05-07 16:14 51.34691 10.04993 36071 ft 487 kts 296°
2026-05-07 16:14 51.37746 9.95313 36072 ft 487 kts 296°
2026-05-07 16:15 51.40795 9.85637 36083 ft 487 kts 296°
2026-05-07 16:15 51.43913 9.76002 36084 ft 487 kts 296°
2026-05-07 16:16 51.46989 9.66328 36082 ft 487 kts 296°
2026-05-07 16:16 51.50043 9.56623 36082 ft 487 kts 296°
2026-05-07 16:17 51.53080 9.46914 36082 ft 487 kts 296°
2026-05-07 16:17 51.56086 9.37262 36082 ft 486 kts 296°
2026-05-07 16:18 51.59103 9.27536 36079 ft 486 kts 296°
2026-05-07 16:18 51.62154 9.17837 36081 ft 486 kts 296°
2026-05-07 16:19 51.65157 9.08076 36083 ft 486 kts 295°
2026-05-07 16:19 51.68130 8.98301 36084 ft 486 kts 295°
2026-05-07 16:20 51.71095 8.88520 36083 ft 485 kts 295°
2026-05-07 16:20 51.74061 8.78735 36083 ft 485 kts 295°
2026-05-07 16:21 51.76828 8.68807 36083 ft 485 kts 292°
2026-05-07 16:21 51.79469 8.58802 36084 ft 484 kts 292°
2026-05-07 16:22 51.82122 8.48805 36084 ft 484 kts 293°
2026-05-07 16:22 51.84782 8.38781 36085 ft 485 kts 292°
2026-05-07 16:23 51.87434 8.28759 36092 ft 485 kts 292°
2026-05-07 16:23 51.90157 8.18769 36096 ft 485 kts 293°
2026-05-07 16:24 51.92848 8.08757 36099 ft 485 kts 293°
2026-05-07 16:24 51.95504 7.98734 36102 ft 485 kts 292°
2026-05-07 16:25 51.98150 7.88678 36106 ft 485 kts 292°
2026-05-07 16:25 52.00783 7.78621 36109 ft 485 kts 292°
2026-05-07 16:26 52.02300 7.72806 36110 ft 484 kts 292°
2026-05-07 16:26 52.03231 7.69226 36110 ft 484 kts 292°
2026-05-07 16:27 52.05625 7.60003 36111 ft 485 kts 292°
2026-05-07 16:29 52.06617 7.56166 36111 ft 485 kts 292°
2026-05-07 16:29 52.09233 7.46039 35719 ft 486 kts 292°
2026-05-07 16:29 52.10573 7.40986 34842 ft 488 kts 293°
2026-05-07 16:30 52.11894 7.35903 34067 ft 487 kts 292°
2026-05-07 16:30 52.13192 7.30823 33301 ft 485 kts 292°
2026-05-07 16:30 52.14476 7.25760 32538 ft 483 kts 292°
2026-05-07 16:30 52.15752 7.20709 31762 ft 481 kts 292°
2026-05-07 16:31 52.17002 7.15748 30981 ft 480 kts 292°
2026-05-07 16:31 52.18267 7.10720 30168 ft 479 kts 292°
2026-05-07 16:31 52.19529 7.05701 29335 ft 478 kts 292°
2026-05-07 16:31 52.20832 7.00710 28491 ft 478 kts 296°
2026-05-07 16:32 52.22505 6.96066 27924 ft 472 kts 302°
2026-05-07 16:32 52.24429 6.91722 27499 ft 480 kts 307°
2026-05-07 16:32 52.26585 6.87456 27055 ft 490 kts 309°
2026-05-07 16:32 52.28767 6.83237 26616 ft 483 kts 308°
2026-05-07 16:33 52.30887 6.78997 26177 ft 481 kts 308°
2026-05-07 16:33 52.32989 6.74767 25744 ft 478 kts 308°
2026-05-07 16:33 52.35085 6.70572 25312 ft 475 kts 308°
2026-05-07 16:33 52.37173 6.66392 24883 ft 473 kts 308°
2026-05-07 16:34 52.39233 6.62227 24458 ft 469 kts 308°
2026-05-07 16:34 52.41279 6.58076 24036 ft 467 kts 307°
2026-05-07 16:34 52.43312 6.53944 23613 ft 464 kts 307°
2026-05-07 16:34 52.45171 6.49658 23185 ft 460 kts 297°
2026-05-07 16:35 52.46291 6.44795 22816 ft 455 kts 284°
2026-05-07 16:35 52.47024 6.39766 22354 ft 451 kts 281°
2026-05-07 16:35 52.47532 6.34715 21938 ft 448 kts 277°
2026-05-07 16:35 52.47848 6.29649 21532 ft 446 kts 274°
2026-05-07 16:36 52.48051 6.24596 21128 ft 442 kts 272°
2026-05-07 16:36 52.48250 6.19579 20728 ft 440 kts 273°
2026-05-07 16:36 52.48475 6.14585 20332 ft 438 kts 274°
2026-05-07 16:36 52.48706 6.09640 19939 ft 431 kts 274°
2026-05-07 16:37 52.48934 6.04792 19554 ft 422 kts 274°
2026-05-07 16:37 52.49162 6.00046 19180 ft 413 kts 274°
2026-05-07 16:37 52.49410 5.95406 18812 ft 404 kts 274°
2026-05-07 16:37 52.49632 5.90858 18456 ft 396 kts 274°
2026-05-07 16:38 52.49837 5.86404 18108 ft 388 kts 274°
2026-05-07 16:38 52.50024 5.82193 17777 ft 381 kts 274°
2026-05-07 16:38 52.50219 5.77740 17425 ft 373 kts 274°
2026-05-07 16:38 52.50402 5.73533 17093 ft 366 kts 274°
2026-05-07 16:39 52.50581 5.69399 16768 ft 360 kts 274°
2026-05-07 16:39 52.50756 5.65345 16448 ft 353 kts 274°
2026-05-07 16:39 52.50925 5.61366 16133 ft 347 kts 272°
2026-05-07 16:39 52.50651 5.57562 15834 ft 337 kts 253°
2026-05-07 16:40 52.49813 5.54036 15677 ft 325 kts 246°
2026-05-07 16:40 52.48848 5.50751 15536 ft 314 kts 243°
2026-05-07 16:40 52.47818 5.47686 15295 ft 301 kts 240°
2026-05-07 16:40 52.46755 5.44753 14765 ft 299 kts 239°
2026-05-07 16:41 52.45670 5.41851 14341 ft 298 kts 238°
2026-05-07 16:41 52.44585 5.38956 14111 ft 298 kts 238°
2026-05-07 16:41 52.43500 5.36054 13854 ft 299 kts 239°
2026-05-07 16:41 52.42421 5.33167 13595 ft 296 kts 239°
2026-05-07 16:42 52.41346 5.30287 13326 ft 296 kts 238°
2026-05-07 16:42 52.40274 5.27414 13063 ft 295 kts 238°
2026-05-07 16:42 52.39205 5.24553 12799 ft 294 kts 238°
2026-05-07 16:42 52.38140 5.21701 12535 ft 293 kts 238°
2026-05-07 16:43 52.37081 5.18869 12273 ft 292 kts 238°
2026-05-07 16:43 52.36024 5.16040 12010 ft 291 kts 238°
2026-05-07 16:43 52.34972 5.13228 11750 ft 289 kts 238°
2026-05-07 16:43 52.34028 5.10328 11475 ft 290 kts 250°
2026-05-07 16:44 52.33590 5.07129 11230 ft 289 kts 261°
2026-05-07 16:44 52.33391 5.03861 10962 ft 289 kts 266°
2026-05-07 16:44 52.33356 5.00579 10699 ft 288 kts 269°
2026-05-07 16:44 52.33358 4.97305 10437 ft 288 kts 269°
2026-05-07 16:45 52.33363 4.94039 10178 ft 287 kts 269°
2026-05-07 16:45 52.33361 4.90804 10082 ft 280 kts 269°
2026-05-07 16:45 52.33341 4.87654 9789 ft 276 kts 268°
2026-05-07 16:45 52.33313 4.84506 9392 ft 276 kts 268°
2026-05-07 16:46 52.33284 4.81386 9146 ft 273 kts 268°
2026-05-07 16:46 52.33253 4.78272 8897 ft 274 kts 268°
2026-05-07 16:46 52.33222 4.75164 8647 ft 273 kts 268°
2026-05-07 16:46 52.33191 4.72071 8399 ft 272 kts 268°
2026-05-07 16:47 52.33160 4.68989 8142 ft 271 kts 268°
2026-05-07 16:47 52.33137 4.65914 7895 ft 270 kts 269°
2026-05-07 16:47 52.33125 4.63884 7731 ft 269 kts 268°
2026-05-07 16:47 52.33089 4.59802 7401 ft 268 kts 268°
2026-05-07 16:48 52.33056 4.56767 7155 ft 267 kts 268°
2026-05-07 16:48 52.33032 4.54762 6993 ft 266 kts 268°
2026-05-07 16:48 52.32995 4.51742 6748 ft 265 kts 268°
2026-05-07 16:48 52.32945 4.47721 6422 ft 264 kts 268°
2026-05-07 16:49 52.32919 4.45740 6262 ft 263 kts 268°
2026-05-07 16:49 52.32817 4.41797 5931 ft 262 kts 259°
2026-05-07 16:49 52.32085 4.39114 5684 ft 260 kts 232°
2026-05-07 16:49 52.31186 4.37773 5489 ft 260 kts 214°
2026-05-07 16:50 52.28936 4.36620 5079 ft 256 kts 187°
2026-05-07 16:50 52.27149 4.36455 4835 ft 258 kts 182°
2026-05-07 16:50 52.25945 4.36509 4635 ft 255 kts 170°
2026-05-07 16:50 52.24358 4.37679 4328 ft 250 kts 142°
2026-05-07 16:51 52.23177 4.39645 4214 ft 236 kts 133°
2026-05-07 16:51 52.22195 4.41721 4054 ft 232 kts 123°
2026-05-07 16:51 52.21400 4.43982 3845 ft 228 kts 116°
2026-05-07 16:51 52.20888 4.46408 3531 ft 226 kts 103°
2026-05-07 16:52 52.20661 4.48927 3267 ft 223 kts 95°
2026-05-07 16:52 52.20652 4.51392 3086 ft 209 kts 84°
2026-05-07 16:52 52.21048 4.53620 2858 ft 201 kts 66°
2026-05-07 16:52 52.21750 4.55523 2573 ft 190 kts 57°
2026-05-07 16:53 52.22489 4.57218 2330 ft 175 kts 56°
2026-05-07 16:53 52.23153 4.58810 2102 ft 166 kts 57°
2026-05-07 16:53 52.23777 4.60393 1874 ft 166 kts 57°
2026-05-07 16:53 52.24395 4.61992 1653 ft 167 kts 57°
2026-05-07 16:54 52.25003 4.63569 1465 ft 161 kts 57°
2026-05-07 16:54 52.25592 4.65100 1251 ft 158 kts 57°
2026-05-07 16:54 52.26171 4.66604 1016 ft 155 kts 57°